[[{"header":{"parameterUnit":"m.s-1","parameterCategory":1,"la1":30.2991,"la2":30.254,"lo1":-89.0895,"lo2":-89.0444,"dy":0.0017,"dx":0.0017,"nx":28,"ny":28,"refTime":"2024-04-23T03:00:00:Z","depth":0,"parameterNumber":2,"parameterNumberName":"U-component_of_WINDS"},"data":[0,0,0,0,0,0,0,0,0,0,0,0,0,0,0,0,0,0,0,0,0,0,0,0,0,0,0,0,0,0,0,0,0,0,0,0,0,0,0,0,0,0,0,0,0,0,0,0,0,0,0,0,0,0,0,0,0,0,-1.7996,-1.7996,0,-1.8005,-1.8005,-1.8005,-1.7995,-1.7995,-1.7994,-1.7994,-1.8002,-1.8003,-1.8003,0,0,0,0,0,0,0,0,0,0,0,0,0,-1.797,-1.7971,-1.7996,-1.7996,-1.7996,-1.8005,-1.8005,-1.8005,-1.7995,-1.7995,-1.7994,-1.7994,-1.8002,-1.8003,-1.8003,0,0,0,0,0,0,0,0,0,0,0,0,0,-1.798,-1.7971,-1.7996,-1.7992,-1.7992,-1.8005,-1.8005,-1.8005,-1.7995,-1.7995,-1.7994,-1.7993,-1.8002,-1.8003,-1.8003,-1.802,0,0,-1.8006,-1.8006,0,0,0,0,0,0,0,0,-1.798,-1.7981,-1.7993,-1.7993,-1.7992,-1.7998,-1.7999,-1.801,-1.7995,-1.7994,-1.7994,-1.7993,-1.8001,-1.8002,-1.8005,-1.8021,-1.8021,-1.8006,-1.8007,-1.8007,-1.8007,0,0,0,0,0,0,0,-1.7979,-1.7981,-1.8,-1.7993,-1.7993,-1.799,-1.7991,-1.8001,-1.8001,-1.7994,-1.7993,-1.7995,-1.8001,-1.8004,-1.8005,-1.8021,-1.8006,-1.8007,-1.8007,-1.8008,-1.8051,-1.8051,0,0,0,0,0,0,-1.7979,-1.798,-1.7999,-1.8,-1.7985,-1.7991,-1.7992,-1.7997,-1.8001,-1.8001,-1.7995,-1.7994,-1.8003,-1.8004,-1.8005,-1.8025,-1.8007,-1.8008,-1.8008,-1.805,-1.8051,-1.8052,0,0,0,0,0,0,-1.7978,-1.7981,-1.7999,-1.799,-1.7992,-1.7992,-1.7998,-1.7997,-1.8001,-1.8001,-1.8001,-1.7998,-1.8003,-1.8004,-1.8017,-1.8025,-1.8008,-1.8009,-1.8049,-1.805,-1.8051,-1.8064,0,0,0,0,0,0,-1.7978,-1.7981,-1.7987,-1.799,-1.7993,-1.801,-1.7998,-1.7998,-1.8002,-1.8001,-1.8004,-1.8004,-1.8002,-1.8015,-1.8017,-1.8026,-1.801,-1.8049,-1.805,-1.8051,-1.8063,-1.8065,-1.8067,0,0,0,0,0,-1.7977,-1.799,-1.7987,-1.799,-1.8001,-1.8011,-1.8012,-1.8009,-1.8003,-1.8009,-1.801,-1.8004,-1.8024,-1.8017,-1.8019,-1.8028,-1.8048,-1.8049,-1.8051,-1.8062,-1.8065,-1.8067,0,0,0,0,0,0,-1.7987,-1.799,-1.7987,-1.8002,-1.8006,-1.8009,-1.8017,-1.8013,-1.8019,-1.8017,-1.8014,-1.8015,-1.8028,-1.8029,-1.8021,-1.8044,-1.8035,-1.8037,-1.8043,-1.8045,-1.8048,-1.8046,-1.801,0,0,0,0,0,-1.7991,-1.8,-1.8002,-1.8015,-1.8017,-1.8017,-1.8021,-1.8019,-1.8023,-1.8024,-1.8026,-1.803,-1.8037,-1.8041,-1.8048,-1.8064,-1.8064,-1.8071,-1.8073,-1.8075,-1.8076,-1.8084,-1.8087,-1.8056,-1.8056,-1.8056,0,0,-1.8,-1.8002,-1.8008,-1.8017,-1.802,-1.8028,-1.8018,-1.8027,-1.8033,-1.8026,-1.8037,-1.8039,-1.8043,-1.8057,-1.8063,-1.8058,-1.8085,-1.8077,-1.8078,-1.8079,-1.8086,-1.8089,-1.8092,-1.8057,-1.8057,-1.8057,0,0,-1.8019,-1.8022,-1.8033,-1.8036,-1.8041,-1.8041,-1.8044,-1.8047,-1.8048,-1.806,-1.8054,-1.8062,-1.8074,-1.8077,-1.808,-1.8102,-1.8097,-1.8104,-1.8115,-1.8123,-1.8126,-1.8128,-1.8135,-1.8138,-1.8106,-1.8106,-1.8106,0,-1.8028,-1.8041,-1.8039,-1.8048,-1.8052,-1.8047,-1.8058,-1.8061,-1.8068,-1.8071,-1.8066,-1.8081,-1.8084,-1.8098,-1.8103,-1.8107,-1.8109,-1.8103,-1.8126,-1.8128,-1.813,-1.8136,-1.8139,-1.8107,-1.8106,-1.8106,-1.8106,0,-1.8052,-1.8061,-1.8069,-1.8076,-1.8081,-1.8091,-1.8091,-1.8096,-1.8094,-1.8094,-1.8107,-1.811,-1.8117,-1.812,-1.8118,-1.8135,-1.8132,-1.8126,-1.8117,-1.8134,-1.814,-1.8142,-1.8108,-1.8107,-1.8107,-1.8107,0,0,-1.8077,-1.8083,-1.8086,-1.8089,-1.8094,-1.8101,-1.8111,-1.8118,-1.8123,-1.8128,-1.8136,-1.8147,-1.8142,-1.8146,-1.8145,-1.8152,-1.8168,-1.8145,-1.8146,-1.8149,-1.8186,-1.8189,-1.8192,-1.8165,-1.8166,-1.8166,-1.8185,0,-1.8095,-1.8113,-1.8112,-1.8128,-1.8136,-1.8131,-1.814,-1.8144,-1.8145,-1.8152,-1.8153,-1.8161,-1.8154,-1.8156,-1.8163,-1.8164,-1.8175,-1.8163,-1.8172,-1.8172,-1.817,-1.8195,-1.8198,-1.8216,-1.8187,-1.8188,-1.8188,0,-1.8119,-1.8125,-1.8142,-1.8147,-1.815,-1.8158,-1.8165,-1.8171,-1.8176,-1.8176,-1.8181,-1.8178,-1.8188,-1.818,-1.8193,-1.8185,-1.8189,-1.819,-1.8191,-1.819,-1.818,-1.8194,-1.8221,-1.8224,-1.8192,-1.8192,-1.8191,0,-1.8134,-1.8147,-1.8159,-1.8162,-1.8167,-1.8173,-1.8176,-1.818,-1.8185,-1.8191,-1.8193,-1.82,-1.8204,-1.821,-1.8209,-1.8203,-1.8223,-1.8214,-1.8222,-1.8222,-1.8226,-1.8225,-1.8253,-1.823,-1.823,-1.823,-1.823,0,-1.8154,-1.8165,-1.8166,-1.8173,-1.8185,-1.8184,-1.8195,-1.8197,-1.8201,-1.8209,-1.8206,-1.8212,-1.8212,-1.8219,-1.8218,-1.8229,-1.8231,-1.8231,-1.8231,-1.8231,-1.8231,-1.8232,-1.8231,-1.8231,-1.8231,-1.823,-1.823,0,-1.8173,-1.8174,-1.8186,-1.8191,-1.8193,-1.8201,-1.8205,-1.8212,-1.8213,-1.8222,-1.8224,-1.8226,-1.8234,-1.8234,-1.8244,-1.8243,-1.8256,-1.8255,-1.8255,-1.8254,-1.8262,-1.8261,-1.8291,-1.8294,-1.8271,-1.8271,-1.8271,0,-1.8185,-1.8193,-1.8199,-1.8204,-1.8207,-1.8215,-1.8219,-1.8219,-1.8224,-1.8231,-1.8236,-1.8244,-1.8251,-1.8264,-1.8266,-1.8273,-1.8271,-1.8281,-1.8272,-1.8272,-1.827,-1.8269,-1.827,-1.8282,-1.8282,-1.8283,-1.8283,0,-1.8206,-1.8207,-1.8214,-1.8221,-1.8227,-1.8233,-1.8238,-1.8242,-1.8243,-1.8249,-1.8257,-1.8262,-1.8272,-1.828,-1.8287,-1.8289,-1.8286,-1.8286,-1.8288,-1.8288,-1.8287,-1.8287,-1.8258,-1.8285,-1.8285,-1.8285,-1.8284,-1.8284,-1.8221,-1.8228,-1.8233,-1.8241,-1.8246,-1.8251,-1.8257,-1.826,-1.8267,-1.8275,-1.8275,-1.8284,-1.8289,-1.8298,-1.8301,-1.8308,-1.8305,-1.8308,-1.8309,-1.8309,-1.831,-1.8287,-1.831,-1.8309,-1.8309,-1.8309,-1.8309,0,-1.8242,-1.8245,-1.8253,-1.8261,-1.8267,-1.8264,-1.827,-1.8276,-1.8284,-1.8289,-1.8295,-1.8305,-1.8313,-1.8316,-1.8323,-1.8328,-1.8327,-1.833,-1.8329,-1.833,-1.8313,-1.831,-1.8331,-1.8331,-1.8331,-1.8331,-1.8331,-1.8331,-1.8253,-1.8264,-1.8266,-1.8279,-1.8282,-1.8292,-1.8295,-1.83,-1.8304,-1.8315,-1.8321,-1.8324,-1.8328,-1.8335,-1.8342,-1.8343,-1.8345,-1.8349,-1.8349,-1.8333,-1.8331,-1.8329,-1.8326,-1.835,-1.835,-1.8365,-1.8365,-1.8365]},{"header":{"parameterUnit":"m.s-1","parameterCategory":1,"la1":30.2991,"la2":30.254,"lo1":-89.0895,"lo2":-89.0444,"dy":0.0017,"dx":0.0017,"nx":28,"ny":28,"refTime":"2024-04-23T03:00:00:Z","depth":0,"parameterNumber":3,"parameterNumberName":"V-component_of_WINDS"},"data":[0,0,0,0,0,0,0,0,0,0,0,0,0,0,0,0,0,0,0,0,0,0,0,0,0,0,0,0,0,0,0,0,0,0,0,0,0,0,0,0,0,0,0,0,0,0,0,0,0,0,0,0,0,0,0,0,0,0,3.8035,3.8035,0,3.8022,3.8022,3.8022,3.798,3.7979,3.7978,3.7977,3.7964,3.7965,3.7965,0,0,0,0,0,0,0,0,0,0,0,0,0,3.8026,3.8026,3.8036,3.8035,3.8035,3.8022,3.8022,3.8022,3.798,3.7979,3.7977,3.7976,3.7964,3.7964,3.7965,0,0,0,0,0,0,0,0,0,0,0,0,0,3.8023,3.8026,3.8036,3.8013,3.801,3.8022,3.8022,3.8022,3.798,3.7979,3.7977,3.7976,3.7964,3.7964,3.7965,3.7999,0,0,3.7968,3.7968,0,0,0,0,0,0,0,0,3.8023,3.8024,3.8016,3.8014,3.8012,3.8001,3.8014,3.8014,3.798,3.7992,3.7977,3.7975,3.7978,3.7977,3.7978,3.7998,3.7997,3.7968,3.7968,3.7969,3.7969,0,0,0,0,0,0,0,3.8024,3.8024,3.803,3.8016,3.8013,3.8003,3.8001,3.8014,3.7993,3.799,3.7987,3.7986,3.7976,3.7977,3.7977,3.7997,3.7968,3.7968,3.7969,3.7969,3.8044,3.8046,0,0,0,0,0,0,3.8027,3.8024,3.8031,3.803,3.8014,3.8005,3.8003,3.8006,3.7992,3.7989,3.7988,3.7984,3.7976,3.7976,3.7977,3.8014,3.7969,3.7969,3.797,3.8043,3.8045,3.8046,0,0,0,0,0,0,3.8027,3.8028,3.8031,3.8026,3.8026,3.8006,3.8011,3.8006,3.8007,3.799,3.7986,3.7992,3.7975,3.7975,3.7993,3.8013,3.797,3.797,3.8041,3.8043,3.8045,3.809,0,0,0,0,0,0,3.8027,3.8028,3.804,3.8027,3.8026,3.8048,3.8012,3.8007,3.8009,3.8004,3.7994,3.799,3.7974,3.7992,3.7994,3.8013,3.7971,3.8039,3.8042,3.8045,3.8087,3.8094,3.81,0,0,0,0,0,3.8027,3.8053,3.8041,3.8042,3.8041,3.8049,3.8049,3.8029,3.801,3.8022,3.8012,3.7991,3.8011,3.7995,3.7996,3.8016,3.8038,3.8041,3.8044,3.8084,3.8092,3.8099,0,0,0,0,0,0,3.8069,3.8051,3.8037,3.806,3.8057,3.8042,3.8056,3.8039,3.804,3.8036,3.8012,3.801,3.8032,3.8026,3.8008,3.8048,3.8021,3.8025,3.805,3.8058,3.8065,3.8065,3.7972,0,0,0,0,0,3.8082,3.8089,3.8073,3.8095,3.8094,3.8076,3.8079,3.8064,3.8059,3.8057,3.8048,3.8044,3.805,3.8054,3.8058,3.8086,3.8083,3.8101,3.8107,3.8113,3.8116,3.813,3.8138,3.8057,3.8057,3.8057,0,0,3.8107,3.8098,3.8104,3.8104,3.8099,3.8108,3.8075,3.8085,3.8092,3.8059,3.8075,3.8068,3.8063,3.8086,3.8096,3.8082,3.8138,3.8117,3.8121,3.8122,3.8135,3.8142,3.8149,3.806,3.8059,3.8059,0,0,3.8157,3.8151,3.8168,3.8165,3.8158,3.8146,3.8151,3.8139,3.8133,3.8149,3.8124,3.8132,3.8142,3.8139,3.8139,3.819,3.8171,3.8192,3.8225,3.8239,3.8245,3.8251,3.8268,3.8275,3.8196,3.8196,3.8196,0,3.8189,3.8201,3.818,3.8192,3.8193,3.8164,3.8182,3.818,3.8175,3.8176,3.8161,3.8173,3.8168,3.819,3.8202,3.8203,3.8207,3.8192,3.8246,3.8252,3.8256,3.8273,3.8279,3.8198,3.8198,3.8198,3.8198,0,3.824,3.8249,3.8264,3.826,3.8263,3.8278,3.826,3.8265,3.8251,3.8241,3.8258,3.825,3.8252,3.8257,3.8243,3.8277,3.8269,3.825,3.8223,3.8267,3.8282,3.8288,3.8202,3.8201,3.82,3.82,0,0,3.8315,3.83,3.8306,3.8304,3.8295,3.8302,3.8317,3.8318,3.8323,3.8322,3.8333,3.8343,3.8326,3.8326,3.8312,3.8325,3.8365,3.8305,3.8304,3.8315,3.8401,3.8414,3.8422,3.8353,3.8354,3.8355,3.8402,0,3.8361,3.8384,3.8367,3.8393,3.8401,3.8375,3.8387,3.8384,3.8375,3.8381,3.8371,3.8378,3.8356,3.8356,3.8367,3.8357,3.8381,3.8354,3.8363,3.8363,3.8363,3.843,3.8443,3.8488,3.8407,3.8408,3.8409,0,3.8418,3.8419,3.8446,3.8436,3.8439,3.845,3.8451,3.8457,3.8453,3.8446,3.8447,3.8429,3.8443,3.8417,3.8436,3.8418,3.8421,3.8417,3.8418,3.8417,3.8388,3.843,3.8502,3.8508,3.8418,3.8417,3.8417,0,3.8469,3.8477,3.8494,3.8494,3.8483,3.8491,3.8487,3.8482,3.8484,3.8485,3.8487,3.849,3.8491,3.8494,3.8478,3.8461,3.8499,3.8472,3.8493,3.8494,3.8501,3.8501,3.8574,3.8505,3.8505,3.8505,3.8505,0,3.8522,3.854,3.8517,3.8527,3.8546,3.8527,3.8546,3.854,3.8535,3.8544,3.8522,3.8531,3.851,3.8517,3.8505,3.8523,3.8524,3.8518,3.8515,3.8519,3.852,3.852,3.8516,3.8507,3.8507,3.8506,3.8506,0,3.8582,3.8567,3.8584,3.8573,3.857,3.8585,3.8575,3.8585,3.8575,3.8587,3.8588,3.8573,3.858,3.8565,3.8571,3.8563,3.8587,3.8579,3.8588,3.8585,3.8607,3.8605,3.8682,3.8691,3.8618,3.8618,3.8619,0,3.8616,3.8628,3.8619,3.8623,3.862,3.8628,3.863,3.8612,3.8616,3.8612,3.8622,3.8628,3.8631,3.8644,3.8633,3.8638,3.8629,3.8656,3.8629,3.8634,3.8628,3.8627,3.8628,3.8661,3.8661,3.8662,3.8663,0,3.8678,3.867,3.8674,3.8677,3.8681,3.8682,3.8681,3.8686,3.8667,3.8672,3.8679,3.8682,3.8687,3.8693,3.8695,3.8691,3.8674,3.8671,3.8676,3.8681,3.8685,3.8682,3.8602,3.8669,3.8669,3.8668,3.8668,3.8668,3.8725,3.8735,3.873,3.8735,3.8733,3.8733,3.8742,3.8733,3.8739,3.8742,3.8731,3.8741,3.8737,3.8737,3.8736,3.8743,3.8731,3.8739,3.874,3.8742,3.8745,3.8685,3.8744,3.8743,3.8743,3.8743,3.8743,0,3.8785,3.878,3.8786,3.8786,3.8791,3.8775,3.8774,3.8779,3.8787,3.8785,3.8789,3.8797,3.8803,3.8794,3.8798,3.8806,3.8798,3.8807,3.8806,3.8805,3.8756,3.8751,3.8813,3.8813,3.8813,3.8813,3.8813,3.8813,3.8816,3.8833,3.8825,3.884,3.8836,3.8844,3.8845,3.8845,3.8844,3.8854,3.8858,3.8852,3.8848,3.8851,3.8856,3.8853,3.8855,3.8867,3.8862,3.8816,3.8809,3.8802,3.8797,3.8868,3.8868,3.891,3.891,3.8911]}]]